Dewpoint
-13 -20 -25 -29 -30 -30 -31 -32 -32 -33 -33 -33 -33 -32 -31 -29 -24 -21 -17 -4 -7 -8 -3 -10 -8 -11 -12 -8 -5 -6 -4 -3 -4 -6 -8 -8 -4 2 3 6 7 8 6 6 12
-2 -7 -15 -23 -27 -29 -29 -31 -32 -33 -33 -33 -34 -34 -33 -32 -28 -22 -10 -6 -7 -2 -2 -4 -6 -3 -3 -4 -5 -6 -4 -4 -7 -9 -7 -7 -6 2 5 7 7 5 5 9 10
-2 -2 -3 -10 -20 -24 -27 -27 -31 -32 -33 -33 -34 -34 -33 -32 -27 -15 -4 -5 -4 -5 -5 -6 -9 -3 -3 -4 -5 -6 -4 -6 -7 -8 -7 -6 -2 3 5 6 6 6 5 11 11
-0 -3 -3 -7 -12 -20 -23 -26 -27 -30 -32 -33 -33 -33 -33 -26 -20 -2 -3 -3 -4 -6 -5 -8 -10 -4 -4 -5 -6 -6 -7 -7 -7 -5 -4 -2 0 8 6 7 6 6 8 12 12
-5 -5 -6 -4 -10 -18 -25 -23 -23 -26 -29 -31 -32 -32 -29 -8 -24 -28 -7 -6 -4 -4 -5 -8 -10 -4 -3 -4 -6 -7 -7 -5 -4 -4 -3 -2 1 7 8 8 8 9 11 12 11
-7 -7 -9 -6 -9 -14 -20 -24 -25 -23 -25 -28 -30 -30 -11 2 -21 -20 -15 -19 -16 -4 -5 -6 -8 -8 -4 -3 -5 -5 -4 -4 -4 -4 -3 3 6 5 5 10 8 6 8 10 11
-12 -12 -8 -11 -9 -12 -16 -18 -22 -25 -22 -24 -28 -24 -6 -25 -27 -27 -21 -2 -5 -3 -4 -4 -5 -6 -3 -2 -3 -3 -3 -4 -5 -4 -2 -2 2 4 2 10 10 7 7 10 9
-12 -17 -16 -13 -13 -12 -15 -17 -19 -23 -25 -23 -26 -17 -7 -28 -26 -28 -27 -22 -2 -2 -3 -2 -1 -3 -2 -3 -3 -2 -2 -2 -5 -4 -3 -2 -1 0 6 8 7 8 11 10 7
-15 -17 -19 -18 -16 -15 -16 -19 -21 -23 -27 -23 -21 -10 -6 -16 -14 -7 -4 -7 -8 -2 -4 -3 0 -0 -1 -1 -1 -1 -0 -1 -1 -4 -3 -0 -1 -0 6 7 8 8 10 8 5
-19 -18 -19 -20 -19 -18 -18 -16 -8 -7 -18 -19 2 0 -18 -18 -5 -2 -2 -3 -10 -6 -3 -3 -2 -1 -1 -0 2 0 1 -0 -0 -2 -0 1 2 5 7 8 9 10 9 6 2
-18 -19 -20 -20 -20 -21 -17 -16 -3 0 2 2 3 -1 -7 -3 -6 -4 -1 -2 -5 -3 -2 -2 -0 1 -0 -1 -2 -1 -0 0 -1 -3 -1 -0 1 1 6 7 8 9 9 5 2
-17 -18 -20 -21 -20 -21 -2 2 2 2 3 1 -2 -1 -1 -1 3 -9 -3 -2 -3 -2 -2 -1 2 -1 -2 -2 -1 -0 0 0 -1 -3 -1 -1 -0 -3 6 6 6 8 9 7 3
-17 -18 -19 -21 -19 -19 -1 3 2 3 4 2 -5 -1 -4 -4 0 -4 -6 -3 -4 -2 -2 -1 -0 -1 -1 -0 0 0 1 1 0 -2 -3 -2 -1 -1 4 6 6 6 8 8 5
-16 -16 -17 -20 -14 -7 2 2 0 4 4 -0 1 -4 -3 -2 2 -7 -4 -4 -4 -3 -4 -3 -4 -1 -0 -0 -0 2 -0 -0 -0 0 2 -1 3 -0 1 6 7 7 7 8 5
-15 -12 -11 -17 -11 -14 -13 -9 1 4 -13 -13 -4 -5 -3 -6 -11 -5 -7 -4 -3 -4 -5 -3 -2 -3 -0 1 -1 1 -1 0 0 1 1 1 3 1 2 5 6 7 7 8 7
-5 -4 -2 -10 -9 -11 -14 -10 3 3 -0 -7 -6 -3 -3 -5 -7 -5 -3 -5 -6 -4 -5 -5 -5 -4 -3 -3 -1 -1 -0 -0 1 1 4 2 2 2 1 1 4 5 7 7 7
-3 -3 -2 -3 -6 -7 -5 -0 4 3 -4 -6 -4 -7 -7 -5 -5 -7 -3 -3 -0 -1 0 -4 -5 -6 -4 -1 -2 -1 -0 4 4 4 4 2 4 2 -0 -1 2 5 6 6 6
-3 -2 -1 -2 -3 -3 -2 2 4 -0 -0 -3 -5 -6 -8 -1 -0 1 -4 -2 -5 -2 -1 0 0 -5 -6 -3 -2 -0 1 5 5 6 5 5 7 4 -1 -2 -2 2 3 6 7
-2 -1 -1 -3 -1 -0 -0 1 -3 -1 -4 -3 -4 -3 -2 -4 -1 1 2 -1 -6 -5 0 1 -1 -4 -6 -5 -4 -1 1 -1 3 6 7 5 4 1 -4 -3 -1 2 5 6 6
-2 -0 -0 -4 -1 1 -0 -4 -3 -4 -4 -4 -2 -3 -2 -4 -2 2 2 1 0 1 -5 -0 1 -2 -4 -5 -4 -3 -1 3 5 7 8 6 5 4 0 -3 -4 1 5 5 6
-0 0 -1 -4 -1 1 -0 -2 -3 -7 -6 -2 -2 -3 -4 -5 -5 1 2 -0 2 3 4 -1 -1 0 -3 -2 -2 -0 1 1 2 5 6 7 4 1 1 -2 -4 -3 4 4 5
-0 0 -1 -2 1 -0 -1 -3 -5 -5 -4 -4 -3 -3 -2 -2 -3 -2 0 -1 1 3 4 4 1 1 -1 -3 -4 -4 -2 2 4 5 5 5 3 -2 -1 -1 -2 -5 -2 2 1
-0 0 -0 -1 -0 0 -1 -2 -4 -5 -4 -3 -1 -3 -4 -3 -1 -2 -2 0 2 4 5 5 5 3 1 -1 -3 -1 -1 -1 2 4 6 6 5 -1 -1 -2 -4 -6 -6 -2 1
-0 0 1 1 -0 -2 -1 1 1 -3 -4 -4 -2 -2 -1 -1 -2 0 1 0 1 3 5 5 7 7 4 -0 -1 1 -0 -0 1 4 3 4 3 1 -1 -1 -2 -3 -4 -5 -3
-0 -1 1 1 1 0 -2 -2 1 1 -3 -3 -2 -3 -2 -1 -1 -1 -3 -2 1 4 3 6 7 4 2 -1 1 2 2 1 2 1 2 1 2 1 -1 -1 -2 -2 -3 -4 -5
-1 -0 1 -1 -1 1 -0 -0 -2 -1 -2 -1 -1 -1 -1 -1 -1 -3 -3 -4 2 4 3 4 7 5 4 -0 -1 1 3 3 3 2 -1 -1 -0 -1 -2 -3 -2 -2 -3 -4 -5
-0 -0 0 -1 -1 1 1 -1 -1 -2 -2 -2 -3 -2 -1 -2 -2 -3 -4 -3 1 4 4 4 6 6 5 4 4 6 4 2 2 2 1 2 -0 -1 -1 -1 -2 -2 -3 -5 -5
Wind_Speed
18 17 17 18 17 17 16 17 17 18 19 19 20 20 23 26 25 23 22 10 5 9 7 4 4 5 6 4 6 6 3 3 5 3 6 23 5 6 3 4 9 7 7 4 1
17 18 18 18 19 19 18 18 17 17 18 18 18 20 19 24 26 24 8 4 6 8 7 6 4 3 2 2 5 4 3 6 6 5 9 20 6 9 6 9 8 12 11 8 2
18 19 19 19 20 19 20 19 19 19 19 19 19 18 17 20 21 5 4 4 5 7 6 6 7 3 3 4 6 6 5 5 15 19 23 13 4 7 7 4 13 10 12 12 8
19 20 22 21 21 21 20 21 21 20 21 20 20 20 16 16 5 4 7 3 4 5 7 7 8 3 2 3 4 1 9 6 13 20 6 4 6 4 10 9 12 11 6 5 8
20 21 22 22 22 23 23 21 21 21 21 21 21 21 19 9 20 18 16 10 7 10 10 11 12 6 4 3 3 6 5 9 19 21 15 11 9 7 9 12 10 5 4 5 5
13 16 17 21 21 21 21 22 22 21 21 20 20 21 14 8 9 10 11 25 22 15 13 14 7 9 7 5 2 3 7 13 19 26 10 6 5 1 15 14 10 6 6 5 5
16 16 18 19 21 20 20 19 20 21 19 19 19 19 18 32 18 20 15 13 18 17 14 12 15 8 1 6 5 5 7 8 9 9 5 7 1 10 16 16 14 10 9 7 3
18 18 17 18 19 21 20 21 19 20 20 17 17 15 17 23 19 23 21 25 21 19 16 11 11 9 5 9 6 5 1 3 3 5 6 4 12 8 11 16 14 11 11 7 3
18 19 18 18 19 21 21 21 22 19 18 15 13 10 18 15 13 5 7 18 23 20 15 12 10 9 5 2 4 2 4 5 9 3 3 3 9 5 15 14 10 15 13 9 6
17 19 19 19 20 21 23 24 10 7 7 7 5 6 20 15 7 6 10 8 17 18 14 10 8 4 3 4 6 5 3 3 5 4 2 5 16 5 14 15 14 17 13 12 7
18 18 18 17 19 20 23 16 6 3 2 8 6 14 16 11 10 8 4 9 12 12 8 7 4 12 14 9 3 3 2 4 14 13 3 11 16 9 13 16 14 20 18 15 9
18 18 17 16 16 16 15 7 9 12 15 26 28 38 40 32 16 22 5 8 9 8 6 3 16 6 7 7 6 5 5 12 11 9 4 9 11 7 9 12 21 22 25 25 16
17 17 15 14 13 11 9 4 11 16 8 14 23 24 37 29 27 39 22 7 6 7 9 10 6 12 12 7 7 8 7 10 7 11 5 4 7 5 6 5 15 19 23 24 26
17 16 13 13 11 4 4 6 11 14 4 7 5 7 10 10 9 31 24 21 7 13 6 8 14 4 5 12 10 11 10 10 10 6 4 1 5 6 6 11 8 20 25 27 28
16 14 11 11 10 6 10 12 10 1 6 2 2 6 5 12 7 3 31 23 10 7 7 9 8 17 13 14 10 10 7 9 9 11 2 2 2 6 2 6 11 14 26 32 33
15 11 8 11 16 9 13 9 3 2 9 6 3 5 2 10 5 3 8 10 17 4 5 10 5 9 14 15 12 8 2 1 2 2 3 4 5 6 5 8 7 13 25 31 34
13 11 11 11 9 3 9 4 2 5 6 3 3 5 5 3 4 3 5 12 7 11 14 3 13 4 2 6 6 5 3 2 3 1 7 5 4 10 7 7 9 15 27 36 34
11 11 14 14 13 8 3 2 9 4 5 9 7 8 2 11 5 6 4 6 8 1 4 12 8 14 7 11 5 7 9 5 6 4 5 0 5 6 7 11 20 27 35 32 33
10 14 18 17 13 8 4 6 6 4 3 6 7 5 4 5 6 9 5 2 6 9 5 6 8 4 11 7 13 5 5 11 5 1 3 4 6 9 6 4 6 17 19 29 36
17 17 21 16 16 12 4 11 6 1 4 4 2 4 5 7 8 6 4 3 7 10 9 4 3 7 6 9 14 11 6 2 2 7 5 4 4 5 7 6 5 6 18 29 34
18 10 8 19 18 15 11 7 3 16 10 4 1 5 3 4 5 4 4 6 3 8 10 6 6 5 2 6 10 4 6 3 5 5 6 2 6 8 10 9 7 9 24 31 33
21 7 12 20 15 9 15 6 8 6 2 6 4 4 6 6 5 4 4 5 13 5 5 4 5 12 24 9 3 10 12 10 5 4 3 4 9 4 8 7 8 16 25 29 29
18 16 22 30 11 14 10 18 13 8 4 3 4 8 3 4 5 9 7 4 5 5 6 10 4 4 7 9 17 5 4 4 2 4 9 7 6 3 5 4 8 10 17 20 29
9 5 12 31 18 18 19 17 12 16 19 15 4 6 4 3 6 7 6 5 12 8 8 10 5 12 14 6 5 5 6 1 7 6 5 12 5 7 7 7 8 12 11 22 26
19 7 11 9 12 13 16 9 17 12 15 16 4 21 17 10 11 17 16 12 13 2 2 6 7 14 18 17 5 5 5 3 2 9 10 8 13 14 12 9 12 14 12 17 23
16 7 13 2 22 20 18 18 22 18 13 10 12 8 11 13 16 6 6 9 5 2 2 3 5 15 6 13 17 15 9 9 4 9 12 8 14 7 16 22 12 20 19 19 24
33 20 11 14 8 14 18 23 19 17 14 28 18 15 13 23 26 30 28 23 9 4 2 0 5 6 5 5 5 3 16 13 8 8 9 10 10 7 8 9 15 25 21 24 32
Wind_Direction
298 296 296 298 299 300 302 306 308 311 311 312 311 309 308 304 300 301 302 301 274 195 221 237 222 212 225 208 200 175 71 242 250 221 261 304 268 208 205 207 207 231 238 243 13
307 306 299 295 296 298 300 301 303 307 309 312 314 313 313 307 306 299 275 265 199 180 200 253 224 200 276 212 180 126 141 236 215 210 264 275 271 193 161 204 247 255 233 212 195
305 309 310 304 297 295 297 298 300 302 305 309 312 313 317 314 320 297 150 113 185 195 200 244 226 252 244 231 204 176 207 210 283 287 276 262 247 213 187 219 234 240 210 196 187
302 304 307 307 304 297 295 295 297 297 301 306 311 311 316 313 292 213 216 167 202 214 218 225 227 193 208 237 193 155 248 255 290 309 284 244 209 239 202 235 222 233 236 196 180
297 298 301 306 306 302 295 294 294 295 297 302 307 310 315 289 263 267 245 246 244 226 224 220 211 205 210 249 288 192 276 307 293 299 269 266 231 229 220 220 215 212 237 205 215
320 322 313 303 309 310 304 294 290 290 293 294 299 302 307 278 289 285 253 243 247 227 225 228 215 236 272 252 175 224 258 282 306 292 261 175 237 321 234 205 212 265 259 232 215
315 318 317 323 311 317 315 308 295 283 284 285 289 295 283 263 281 270 265 244 213 226 229 246 240 214 159 319 315 277 315 317 269 268 254 167 274 245 263 201 225 265 253 222 218
307 311 317 322 320 319 321 315 305 287 268 272 277 288 266 287 268 256 258 245 223 219 232 232 257 244 211 272 327 333 93 352 300 2 270 160 267 243 197 188 223 234 231 229 257
302 306 311 316 321 320 323 319 304 287 263 263 267 268 268 275 275 294 292 260 228 225 236 247 246 232 210 154 344 358 240 250 309 172 270 194 266 280 196 208 213 226 211 221 198
299 300 306 314 317 325 326 324 325 304 240 230 218 277 255 268 281 280 318 286 220 218 225 220 207 189 107 133 224 197 215 256 250 290 87 270 265 272 203 203 199 209 223 220 214
297 299 303 308 315 331 331 350 339 279 336 231 212 242 264 275 277 238 285 318 193 191 173 182 172 214 201 195 124 148 276 281 280 278 217 262 256 238 201 215 207 195 202 222 219
290 295 300 306 311 324 345 57 29 326 296 281 260 256 251 261 295 255 289 196 179 206 137 218 234 204 186 192 204 226 245 267 286 272 158 268 253 283 190 220 217 201 199 199 203
285 290 294 299 303 315 340 25 351 332 267 287 254 247 247 241 237 249 240 233 198 171 197 204 223 200 181 199 207 233 221 254 231 305 244 253 313 256 265 261 214 220 220 216 197
279 285 289 293 295 312 343 300 327 312 288 278 230 261 225 207 247 244 235 208 210 199 188 230 240 268 182 216 183 242 210 246 264 279 245 114 269 283 234 222 209 224 217 219 207
273 277 278 272 274 288 284 301 323 352 312 232 224 312 184 169 308 296 218 204 197 184 163 224 184 210 221 224 182 232 206 225 254 271 164 300 319 268 144 232 227 218 223 219 216
270 264 271 256 270 296 281 308 304 35 253 314 135 91 160 235 292 50 165 197 204 213 229 223 216 184 212 227 190 229 289 269 39 173 264 211 175 273 192 213 227 214 216 221 216
259 246 238 248 262 282 301 305 148 211 322 327 26 2 323 5 263 286 140 200 164 197 226 223 240 279 198 215 159 156 135 306 297 345 244 223 166 239 278 232 214 198 210 221 224
246 240 230 236 252 262 310 45 221 225 250 319 341 326 4 8 37 328 157 183 257 276 177 210 263 205 202 209 171 176 169 174 217 192 253 251 239 250 247 281 221 213 215 215 220
228 240 239 229 237 232 186 211 219 177 323 13 348 351 31 4 360 8 5 275 212 205 197 185 234 232 215 177 190 211 185 205 159 28 110 229 288 310 291 301 190 201 196 210 220
233 242 242 232 218 203 198 240 220 208 27 32 53 341 3 0 353 33 329 344 334 20 249 254 255 231 227 184 213 205 166 105 356 189 226 248 245 227 296 247 143 174 199 214 219
232 241 227 217 208 194 219 231 303 265 288 352 332 300 313 301 263 297 276 317 18 350 2 314 236 282 248 198 189 165 213 229 154 152 190 212 254 212 234 225 209 202 205 212 220
227 226 199 200 199 212 228 206 255 258 313 230 235 247 264 303 289 294 247 217 21 15 349 294 277 233 243 260 251 216 210 182 184 208 226 193 235 240 228 248 218 219 211 214 217
224 220 202 198 212 220 226 230 234 254 216 218 245 201 184 242 251 240 268 213 45 43 42 355 320 263 284 259 255 203 209 199 143 131 197 189 248 223 272 248 210 221 241 224 218
226 194 191 199 211 211 217 223 211 217 242 254 261 316 324 310 286 280 299 314 336 328 3 8 236 227 242 270 168 184 187 212 194 210 168 225 207 257 249 220 249 238 248 220 213
216 218 193 203 207 210 210 220 213 216 204 208 250 240 247 259 258 256 272 269 246 175 25 10 269 260 243 241 196 184 179 207 237 252 210 195 221 215 227 240 235 250 260 234 227
213 190 187 190 207 200 207 216 221 215 212 201 218 208 213 224 223 251 253 278 269 91 76 4 286 307 251 219 222 223 215 226 263 309 248 243 229 211 228 234 241 250 254 224 219
221 226 198 202 190 199 210 218 223 222 237 230 227 241 252 244 239 242 253 264 261 274 73 57 313 321 263 177 117 332 233 240 239 262 273 227 233 196 229 221 229 244 239 231 218
Height
1534 1531 1529 1527 1525 1522 1520 1519 1517 1515 1513 1511 1508 1507 1505 1501 1497 1496 1493 1491 1489 1490 1492 1493 1494 1496 1497 1497 1499 1500 1510 1518 1509 1503 1492 1482 1483 1478 1478 1479 1477 1475 1472 1473 1471
1532 1529 1527 1524 1522 1521 1518 1516 1514 1512 1510 1508 1505 1504 1502 1497 1494 1490 1490 1488 1488 1488 1490 1492 1493 1495 1497 1497 1497 1499 1511 1504 1493 1490 1487 1481 1480 1476 1477 1474 1475 1473 1471 1470 1469
1529 1527 1524 1520 1519 1517 1516 1513 1511 1509 1507 1505 1503 1501 1499 1495 1493 1487 1487 1487 1487 1488 1488 1490 1491 1493 1496 1496 1496 1495 1501 1491 1485 1483 1479 1479 1479 1475 1470 1475 1469 1469 1466 1466 1465
1527 1524 1523 1518 1515 1514 1512 1511 1508 1507 1504 1503 1501 1499 1497 1495 1497 1487 1486 1486 1486 1486 1487 1488 1490 1491 1493 1495 1493 1494 1488 1487 1483 1480 1478 1477 1475 1470 1470 1464 1462 1463 1468 1471 1469
1524 1522 1519 1517 1512 1510 1508 1506 1505 1503 1502 1500 1498 1496 1495 1492 1484 1485 1485 1484 1484 1484 1484 1486 1486 1489 1491 1490 1491 1490 1484 1482 1482 1477 1475 1476 1471 1467 1463 1461 1463 1464 1465 1468 1467
1521 1520 1516 1514 1510 1507 1504 1502 1501 1500 1498 1497 1495 1493 1493 1491 1480 1479 1478 1479 1481 1482 1482 1484 1482 1485 1487 1487 1489 1486 1484 1480 1475 1472 1472 1473 1470 1468 1458 1461 1463 1463 1464 1465 1465
1519 1516 1515 1511 1508 1504 1501 1498 1496 1494 1494 1492 1492 1490 1488 1475 1478 1475 1475 1475 1477 1479 1478 1481 1483 1483 1485 1485 1483 1485 1484 1477 1469 1468 1468 1468 1472 1465 1457 1460 1461 1462 1462 1465 1464
1516 1514 1512 1509 1506 1502 1498 1495 1491 1488 1487 1487 1488 1487 1478 1469 1471 1469 1471 1471 1474 1476 1477 1478 1482 1481 1482 1483 1482 1485 1483 1487 1467 1468 1466 1467 1472 1453 1456 1458 1461 1461 1460 1460 1461
1513 1512 1510 1507 1503 1500 1495 1491 1486 1481 1481 1483 1484 1485 1471 1465 1464 1465 1465 1464 1471 1473 1475 1477 1479 1479 1480 1485 1491 1489 1496 1488 1476 1466 1468 1470 1465 1453 1455 1458 1461 1459 1458 1458 1461
1510 1510 1507 1505 1501 1498 1492 1487 1481 1478 1477 1479 1482 1488 1467 1463 1463 1462 1463 1462 1466 1469 1473 1474 1476 1477 1479 1487 1499 1493 1491 1485 1482 1468 1468 1470 1465 1455 1455 1457 1459 1460 1457 1456 1457
1507 1507 1505 1503 1500 1496 1491 1485 1485 1481 1477 1474 1475 1469 1461 1461 1460 1460 1461 1461 1464 1466 1468 1468 1476 1472 1470 1474 1476 1479 1482 1487 1474 1461 1471 1464 1460 1455 1453 1456 1457 1459 1459 1455 1455
1505 1504 1504 1501 1498 1496 1493 1492 1495 1495 1477 1467 1463 1461 1458 1461 1462 1455 1461 1461 1462 1464 1464 1469 1465 1463 1467 1471 1475 1479 1482 1481 1471 1461 1466 1459 1457 1451 1450 1449 1450 1451 1456 1456 1455
1502 1501 1502 1499 1497 1495 1494 1495 1493 1490 1484 1454 1449 1446 1446 1452 1450 1446 1457 1456 1457 1462 1462 1463 1457 1453 1461 1467 1473 1475 1478 1474 1477 1463 1460 1459 1461 1453 1447 1447 1448 1449 1452 1457 1456
1499 1499 1499 1498 1498 1493 1493 1493 1493 1489 1485 1455 1447 1439 1439 1445 1445 1439 1446 1452 1452 1455 1460 1462 1452 1455 1459 1462 1465 1475 1461 1465 1468 1473 1475 1458 1481 1457 1448 1445 1445 1444 1446 1449 1452
1495 1496 1496 1496 1493 1493 1492 1491 1491 1489 1491 1444 1440 1439 1438 1441 1437 1431 1434 1444 1445 1449 1454 1452 1450 1452 1458 1451 1457 1461 1455 1462 1463 1468 1466 1463 1473 1456 1446 1447 1442 1440 1440 1443 1447
1492 1493 1493 1494 1491 1492 1489 1490 1490 1493 1483 1444 1439 1442 1443 1441 1436 1432 1435 1440 1442 1446 1445 1446 1442 1444 1443 1443 1450 1450 1456 1457 1461 1466 1477 1462 1469 1455 1451 1436 1430 1432 1434 1438 1441
1488 1490 1490 1491 1490 1490 1489 1491 1495 1494 1454 1444 1445 1444 1441 1439 1437 1432 1435 1441 1443 1452 1448 1446 1442 1441 1440 1445 1446 1452 1461 1483 1482 1483 1477 1456 1465 1448 1431 1427 1422 1423 1426 1430 1434
1484 1486 1486 1488 1489 1491 1491 1494 1491 1461 1457 1446 1449 1444 1443 1443 1440 1438 1436 1443 1439 1438 1445 1450 1454 1441 1436 1437 1442 1449 1455 1477 1475 1482 1473 1455 1461 1441 1420 1415 1414 1417 1419 1425 1430
1482 1481 1481 1484 1488 1490 1493 1493 1467 1460 1457 1459 1452 1449 1447 1448 1448 1444 1446 1442 1438 1438 1445 1447 1444 1426 1423 1428 1435 1442 1452 1440 1458 1462 1474 1461 1446 1427 1417 1415 1413 1414 1421 1423 1425
1476 1477 1475 1480 1485 1488 1490 1475 1466 1460 1461 1461 1465 1459 1459 1458 1453 1451 1450 1445 1442 1441 1436 1433 1441 1422 1419 1422 1422 1426 1431 1452 1457 1469 1471 1459 1452 1446 1427 1419 1416 1418 1418 1419 1421
1472 1471 1470 1474 1481 1483 1476 1473 1464 1464 1464 1466 1463 1463 1461 1460 1457 1454 1453 1446 1445 1443 1442 1439 1437 1432 1420 1422 1423 1430 1432 1432 1435 1451 1460 1466 1456 1426 1421 1416 1414 1415 1414 1415 1417
1466 1464 1465 1470 1475 1469 1464 1466 1466 1463 1462 1466 1465 1467 1467 1464 1461 1458 1453 1449 1446 1447 1449 1444 1436 1433 1421 1414 1411 1412 1416 1422 1441 1445 1449 1451 1438 1411 1412 1414 1413 1411 1411 1413 1415
1456 1457 1458 1462 1459 1457 1460 1460 1464 1464 1462 1464 1463 1463 1462 1462 1466 1454 1452 1447 1446 1447 1453 1454 1443 1440 1428 1420 1407 1415 1413 1415 1422 1429 1438 1449 1437 1408 1409 1409 1408 1410 1410 1412 1412
1450 1448 1448 1445 1442 1446 1453 1454 1458 1459 1462 1463 1464 1463 1464 1463 1460 1457 1453 1448 1446 1449 1450 1452 1443 1438 1429 1417 1411 1414 1411 1411 1415 1432 1429 1418 1419 1410 1407 1407 1405 1405 1406 1408 1410
1437 1432 1432 1432 1433 1440 1445 1444 1451 1454 1455 1457 1460 1461 1464 1464 1457 1454 1451 1449 1444 1444 1449 1450 1440 1425 1412 1409 1406 1407 1408 1408 1412 1413 1416 1412 1411 1403 1400 1400 1399 1399 1400 1402 1406
1423 1423 1426 1425 1428 1435 1437 1435 1439 1444 1448 1450 1454 1453 1455 1457 1454 1447 1444 1445 1443 1441 1443 1450 1437 1425 1407 1399 1399 1400 1402 1402 1404 1408 1400 1403 1398 1393 1390 1392 1394 1394 1396 1397 1398
1413 1414 1417 1416 1421 1426 1422 1427 1430 1441 1441 1443 1446 1449 1451 1442 1442 1442 1440 1441 1440 1439 1443 1449 1446 1437 1411 1401 1401 1413 1395 1393 1393 1402 1407 1406 1394 1386 1389 1388 1388 1388 1389 1390 1393